www.pogodaiklimat.ru

Погода и климат >> Архив погоды >> Австрия >> Гумпольдскирхен


ПОГОДА в Гумпольдскирхене

  • Прогноз погоды в Гумпольдскирхене
  • Монитор погоды в Гумпольдскирхене

АРХИВ ПОГОДЫ в Гумпольдскирхене

Время (UTC), дата Ветер
(напр.,м/с)
 
Видим.   Явления Облачность Т
(С)
Тd
(С)
f
(%)
Тe
(С)
Тes
(С)
Комфортность P
(гПа)
Po
(гПа)
Тmin
(С)
Tmax
(С)
R
(мм)
R24
(мм)
S
(см)
07 13.08 З 7
{13}
н/о н/о +19.3 +15.1 77 +20 +20 1018.1 992.4
08 13.08 З 5 н/о н/о +20.2 +15.5 74 +23 +23 комфорт 1018.2 992.6
09 13.08 СЗ 3
{13}
н/о н/о +21.4 +15.4 69 +25 +25 комфорт 1018.7 993.1
10 13.08 СЗ 3 н/о н/о +22.0 +16.0 69 +26 +26 душно 1018.5 993.0
11 13.08 СЗ 2 н/о н/о +21.6 +14.7 65 +25 +25 комфорт 1018.6 993.1
12 13.08 З 3
{13}
н/о н/о +22.0 +15.4 66 +26 +26 душно 1018.4 992.9
13 13.08 СЗ 2 н/о н/о +22.4 +15.0 63 +26 +26 жарко 1017.8 992.3
14 13.08 СЗ 3 н/о н/о +22.0 +15.0 64 +25 +25 комфорт 1017.6 992.1
15 13.08 СЗ 3 н/о н/о +22.0 +14.6 63 +25 +25 комфорт 1017.3 991.8
16 13.08 СЗ 3 н/о н/о +21.5 +14.2 63 +24 +24 комфорт 1017.3 991.8
17 13.08 СЗ 4 н/о н/о +20.9 +14.3 66 +24 +24 комфорт 1016.8 991.2
18 13.08 СЗ 4
{13}
н/о н/о +19.9 +14.2 70 +22 +22 комфорт 1016.7 991.1 +18.5 +22.8
19 13.08 З 6 н/о н/о +19.8 +13.6 67 +21 +21 комфорт 1016.7 991.0
20 13.08 З 8 н/о н/о +19.8 +13.4 67 +21 +21 комфорт 1016.6 990.9
21 13.08 З 9 н/о н/о +19.7 +13.6 68 +21 +21 комфорт 1016.7 991.0
22 13.08 З 8
{15}
н/о н/о +19.1 +13.6 70 +20 +20 1017.1 991.4
23 13.08 СЗ 7
{14}
н/о н/о +18.5 +13.7 74 +18 +18 1017.3 991.5 0.0
00 14.08 СЗ 6
{15}
н/о осадки н/о +16.6 +14.4 87 +15 +15 1017.6 991.6 0.7
01 14.08 З 5 н/о осадки н/о +16.4 +13.8 85 +15 +15 1017.6 991.6 0.9
02 14.08 СЗ 6 н/о в посл. час осадки н/о +15.8 +13.5 86 +14 +14 1017.0 991.0 0.3
03 14.08 З 10
{15}
н/о {осадки} н/о +15.5 +12.6 83 +13 +13 1017.5 991.4 1
04 14.08 З 11
{15}
н/о н/о +15.7 +11.8 78 +13 +13 1017.1 991.1
05 14.08 З 9
{15}
н/о н/о +16.0 +11.6 75 +14 +14 1017.4 991.4
06 14.08 З 10
{17}
н/о {осадки} н/о +16.4 +11.8 74 +15 +15 1017.9 991.9 +15.5 +19.9 2
07 14.08 З 9
{14}
н/о н/о +17.0 +12.3 74 +16 +16 1018.1 992.1
08 14.08 З 6
{16}
н/о н/о +18.5 +12.1 66 +18 +18 1018.2 992.4
09 14.08 СЗ 5
{16}
н/о н/о +19.7 +12.5 63 +21 +21 комфорт 1018.1 992.4
10 14.08 СЗ 4 н/о н/о +21.3 +12.6 58 +24 +24 комфорт 1018.0 992.4
11 14.08 СЗ 4 н/о н/о +21.5 +11.2 52 +23 +23 комфорт 1018.1 992.5
12 14.08 З 5
{16}
н/о н/о +21.1 +11.8 55 +23 +23 комфорт 1018.2 992.6
13 14.08 З 6 н/о н/о +21.2 +10.3 50 +23 +23 комфорт 1018.0 992.4
14 14.08 СЗ 4 н/о н/о +22.8 +9.9 44 +25 +25 комфорт 1017.5 992.0
15 14.08 СЗ 4 н/о н/о +23.1 +9.2 41 +25 +25 комфорт 1017.2 991.8
16 14.08 СЗ 4 н/о н/о +22.4 +9.0 42 +24 +24 комфорт 1017.4 991.9
17 14.08 З 4 н/о н/о +22.2 +9.8 45 +24 +24 комфорт 1017.6 992.1
18 14.08 З 4
{16}
н/о н/о +20.2 +8.3 46 +21 +21 комфорт 1018.2 992.5 +16.3 +23.7
19 14.08 З 5 н/о н/о +18.9 +9.1 53 +19 +19 1018.8 993.0
20 14.08 З 6 н/о н/о +18.3 +9.6 57 +18 +18 1019.1 993.2
21 14.08 З 6 н/о н/о +18.1 +9.7 58 +18 +18 1019.2 993.3
22 14.08 З 5 н/о н/о +18.0 +9.6 58 +18 +18 1019.3 993.4
23 14.08 З 5 н/о н/о +18.2 +9.2 56 +18 +18 1019.2 993.3
00 15.08 СЗ 4 н/о н/о +17.6 +9.0 57 +17 +17 1019.2 993.2
01 15.08 СЗ 4 н/о н/о +17.2 +8.8 58 +17 +17 1019.2 993.2
02 15.08 З 1 н/о н/о +15.6 +9.0 65 +16 +16 1019.1 993.0
03 15.08 СВ 1 н/о н/о +12.8 +9.7 81 +13 +13 1019.1 992.7
04 15.08 ЮЗ 1 н/о н/о +11.1 +9.2 88 +11 +11 1019.1 992.6
05 15.08 штиль 0 н/о н/о +12.3 +10.2 87 +12 +12 1019.1 992.7
06 15.08 СВ 1 н/о н/о +16.3 +11.2 72 +17 +17 1018.9 992.9 +10.8 +20.6
07 15.08 В 1 н/о н/о +18.4 +11.6 65 +20 +20 1018.3 992.5 0.0
08 15.08 ЮВ 1 н/о н/о +20.3 +10.7 54 +23 +23 комфорт 1018.0 992.3
09 15.08 В 1 н/о н/о +21.7 +10.7 50 +24 +24 комфорт 1017.5 992.0 0.0
10 15.08 В 3 н/о н/о +23.1 +10.1 44 +25 +25 комфорт 1016.6 991.2
11 15.08 ЮВ 3 н/о н/о +24.1 +10.5 42 +25 +25 комфорт 1016.0 990.7
12 15.08 В 2 н/о н/о +24.7 +10.6 41 +26 +26 жарко 1015.3 990.1 0.0
13 15.08 ЮВ 3 н/о н/о +25.0 +10.3 40 +26 +26 жарко 1014.9 989.7
14 15.08 ЮВ 2 н/о н/о +25.4 +11.0 40 +26 +26 жарко 1014.5 989.3
15 15.08 В 3 н/о н/о +24.9 +10.9 41 +26 +26 жарко 1014.4 989.2
16 15.08 В 2 н/о н/о +24.5 +11.1 43 +26 +26 жарко 1014.3 989.1
17 15.08 ЮВ 2 н/о н/о +23.1 +11.2 47 +25 +25 комфорт 1014.4 989.1
18 15.08 С 1 н/о н/о +21.3 +12.1 56 +23 +23 комфорт 1015.0 989.5 +15.4 +25.9 0.0
19 15.08 З 3 н/о н/о +22.1 +11.0 49 +24 +24 комфорт 1015.3 989.8
20 15.08 З 4 н/о н/о +21.6 +11.0 51 +23 +23 комфорт 1015.6 990.1
21 15.08 З 4 н/о н/о +20.9 +11.1 53 +23 +23 комфорт 1016.0 990.4
22 15.08 З 6 н/о н/о +20.8 +11.6 56 +23 +23 комфорт 1016.4 990.8
23 15.08 З 4 н/о н/о +20.0 +12.4 62 +22 +22 комфорт 1016.7 991.0
00 16.08 З 3 н/о н/о +18.0 +12.6 71 +18 +18 1016.8 991.0
01 16.08 З 4 н/о н/о +17.3 +12.6 74 +17 +17 1016.9 991.0
02 16.08 З 7 н/о н/о +19.1 +13.0 68 +20 +20 1016.6 990.9
03 16.08 З 8
{13}
н/о н/о +19.1 +13.4 70 +20 +20 1016.8 991.1
04 16.08 З 8
{13}
н/о осадки н/о +17.8 +14.0 78 +17 +17 1017.1 991.3 0.8
05 16.08 З 4 н/о н/о +17.7 +13.7 77 +17 +17 1017.8 991.9 0.0
06 16.08 З 6
{13}
н/о {осадки} н/о +19.0 +13.8 72 +20 +20 1017.8 992.0 +16.6 +22.6 0.8
07 16.08 З 7 н/о н/о +19.5 +13.9 70 +21 +21 комфорт 1017.7 992.0
08 16.08 З 8
{17}
н/о н/о +18.8 +13.4 71 +19 +19 1018.3 992.5
09 16.08 З 7
{17}
н/о н/о +19.7 +12.8 64 +21 +21 комфорт 1018.4 992.7 0.0
10 16.08 З 4 н/о н/о +21.1 +13.5 62 +24 +24 комфорт 1018.6 993.0
11 16.08 СЗ 4 н/о н/о +22.2 +13.3 57 +25 +25 комфорт 1018.1 992.6
12 16.08 З 6
{17}
н/о н/о +22.2 +12.2 53 +25 +25 комфорт 1017.7 992.2 0.0
13 16.08 СЗ 4 н/о н/о +23.2 +13.0 53 +26 +26 жарко 1017.5 992.1
14 16.08 З 9
{15}
н/о н/о +21.9 +11.0 50 +24 +24 комфорт 1017.3 991.8 0.0
15 16.08 СЗ 4
{15}
н/о н/о +21.4 +12.7 58 +24 +24 комфорт 1017.8 992.2 0.0
16 16.08 СЗ 2 н/о н/о +22.2 +12.6 54 +25 +25 комфорт 1017.6 992.1
17 16.08 З 5 н/о н/о +22.0 +11.2 50 +24 +24 комфорт 1017.5 992.0
18 16.08 З 4
{17}
н/о н/о +20.8 +11.4 55 +23 +23 комфорт 1018.0 992.4 +18.7 +23.9 0.0
19 16.08 З 3 н/о н/о +19.9 +12.4 62 +22 +22 комфорт 1018.7 993.0
20 16.08 З 2 н/о н/о +17.9 +12.1 69 +18 +18 1019.0 993.1
21 16.08 З 4 н/о н/о +18.0 +12.4 70 +18 +18 1018.9 993.0
22 16.08 штиль 0 н/о н/о +15.3 +12.2 82 +15 +15 1019.1 993.0
23 16.08 З 1 н/о н/о +13.2 +11.4 89 +13 +13 1019.0 992.7
00 17.08 СЗ 1 н/о н/о +12.8 +11.4 91 +13 +13 1019.0 992.6
01 17.08 СЗ 1 н/о н/о +12.2 +11.0 92 +12 +12 1018.7 992.3
02 17.08 СЗ 1 н/о н/о +11.5 +10.6 94 +11 +11 1018.7 992.2
03 17.08 С 1 н/о н/о +11.1 +10.2 94 +11 +11 1018.3 991.8
04 17.08 штиль 0 н/о н/о +10.5 +9.9 96 +10 +10 1018.7 992.1
05 17.08 штиль 0 н/о н/о +12.5 +11.5 94 +12 +12 1018.5 992.1
06 17.08 штиль 0 н/о н/о +15.9 +12.9 82 +16 +16 1018.2 992.2 +10.3 +21.1
07 17.08 В 1 н/о н/о +17.7 +12.9 73 +19 +19 1018.1 992.2
08 17.08 В 1 н/о н/о +20.2 +12.1 60 +23 +23 комфорт 1017.7 992.0
09 17.08 Ю 1 н/о н/о +21.4 +13.1 59 +24 +24 комфорт 1017.3 991.8
10 17.08 ЮВ 1 н/о н/о +23.1 +13.3 54 +26 +26 жарко 1016.8 991.4
11 17.08 ЮВ 2 н/о н/о +24.1 +13.0 50 +26 +26 жарко 1016.2 990.9
12 17.08 ЮВ 2 н/о н/о +26.4 +11.9 40 +28 +28 жарко 1015.4 990.3
13 17.08 ЮВ 2 н/о н/о +27.1 +12.2 40 +29 +29 жарко 1015.0 990.0
14 17.08 СВ 3 н/о н/о +27.4 +12.3 39 +29 +29 жарко 1014.7 989.7
15 17.08 ЮВ 2 н/о н/о +27.9 +12.3 38 +29 +29 жарко 1014.5 989.6
16 17.08 СЗ 2 н/о н/о +26.7 +9.2 33 +27 +27 жарко 1014.4 989.3
17 17.08 З 3 н/о н/о +26.2 +9.2 34 +27 +27 жарко 1014.4 989.3
18 17.08 ЮЗ 1 н/о н/о +24.1 +10.5 42 +25 +25 комфорт 1014.6 989.3 +15.5 +28.5
19 17.08 З 2 н/о н/о +20.5 +11.0 54 +23 +23 комфорт 1015.3 989.7
20 17.08 З 2 н/о н/о +20.6 +11.7 57 +23 +23 комфорт 1015.1 989.5
21 17.08 ЮЗ 1 н/о н/о +20.0 +12.3 61 +23 +23 комфорт 1014.7 989.1
22 17.08 СЗ 2 н/о н/о +19.5 +13.5 68 +22 +22 комфорт 1014.6 989.0
23 17.08 СЗ 1 н/о н/о +19.1 +13.9 72 +21 +21 комфорт 1014.6 988.9
00 18.08 штиль 0 н/о н/о +17.7 +14.5 82 +18 +18 1014.6 988.8
01 18.08 В 1 н/о н/о +18.1 +14.9 82 +19 +19 1014.5 988.8
02 18.08 Ю 1 н/о н/о +18.2 +15.0 82 +20 +20 1014.5 988.8
03 18.08 С 2 н/о н/о +18.9 +14.4 75 +21 +21 комфорт 1014.1 988.4
04 18.08 ЮЗ 2 н/о н/о +18.8 +14.2 75 +20 +20 1014.1 988.4
05 18.08 СЗ 1 н/о н/о +17.9 +14.4 80 +19 +19 1013.9 988.2
06 18.08 В 1 н/о н/о +20.4 +15.2 72 +24 +24 комфорт 1014.0 988.5 +17.5 +24.4
07 18.08 СВ 2 н/о н/о +22.3 +15.0 63 +26 +26 жарко 1014.1 988.7
08 18.08 В 1 н/о н/о +24.8 +15.0 54 +28 +28 жарко 1013.9 988.7
09 18.08 Ю 1 н/о н/о +26.8 +16.5 53 +30 +30 душно 1013.5 988.5
10 18.08 ЮВ 2 н/о н/о +28.4 +16.6 49 +32 +32 душно 1013.2 988.4
11 18.08 ЮВ 2 н/о н/о +29.9 +17.6 48 +34 +34 очень
душно
1012.8 988.1
12 18.08 ЮВ 2 н/о н/о +31.5 +15.9 39 +34 +34 душно 1012.3 987.7
13 18.08 В 3 н/о н/о +32.9 +16.7 38 +36 +36 очень
душно
1011.7 987.3
14 18.08 ЮВ 2 н/о н/о +33.7 +15.6 34 +36 +36 очень
душно
1011.4 987.0
15 18.08 ЮВ 3 н/о н/о +32.8 +15.5 35 +35 +35 душно 1011.3 986.9
16 18.08 ЮВ 5 н/о н/о +32.9 +14.6 33 +34 +34 очень
жарко
1011.1 986.7
17 18.08 ЮВ 4 н/о н/о +31.9 +15.1 36 +34 +34 душно 1011.1 986.6
18 18.08 ЮВ 2 н/о н/о +29.3 +14.8 41 +32 +32 душно 1011.3 986.6 +20.1 +34.0
19 18.08 ЮЗ 2 н/о н/о +26.8 +15.1 49 +30 +30 душно 1011.9 987.0
20 18.08 ЮЗ 2 н/о н/о +24.8 +15.8 57 +28 +28 жарко 1012.4 987.3
21 18.08 ЮЗ 2 н/о н/о +23.5 +16.8 66 +27 +27 душно 1012.5 987.3
22 18.08 ЮЗ 2 н/о н/о +22.6 +17.5 73 +28 +28 душно 1012.4 987.1
23 18.08 З 1 н/о н/о +21.1 +17.4 79 +25 +25 комфорт 1012.3 986.9
00 19.08 штиль 0 н/о н/о +20.2 +17.5 84 +23 +23 комфорт 1012.2 986.7 0.0
01 19.08 штиль 0 н/о н/о +18.8 +16.9 89 +20 +20 1012.2 986.6
02 19.08 З 3 н/о н/о +19.4 +17.4 88 +22 +22 комфорт 1012.0 986.5
03 19.08 ЮЗ 2 н/о н/о +19.8 +17.4 86 +23 +23 комфорт 1012.4 986.9
04 19.08 ЮВ 1 н/о н/о +17.5 +16.8 96 +19 +19 1013.8 988.0
05 19.08 З 4 н/о н/о +23.4 +15.0 59 +27 +27 душно 1014.0 988.7
06 19.08 З 11
{19}
н/о н/о +25.1 +15.5 55 +28 +28 жарко 1014.6 989.5 +17.1 +29.8 0.0
07 19.08 СЗ 9
{19}
н/о н/о +25.5 +16.0 56 +29 +29 душно 1015.3 990.2
08 19.08 СЗ 7
{16}
н/о н/о +26.2 +14.6 49 +29 +29 жарко 1015.9 990.8
09 19.08 СЗ 5
{19}
н/о н/о +27.3 +14.7 46 +30 +30 душно 1016.4 991.4
10 19.08 З 6 н/о н/о +28.0 +14.6 44 +30 +30 жарко 1016.9 991.9
11 19.08 СЗ 3 н/о н/о +28.9 +14.8 42 +31 +31 жарко 1016.8 991.9
12 19.08 СЗ 2
{19}
н/о н/о +29.9 +14.3 39 +32 +32 жарко 1016.8 992.0
13 19.08 С 4 н/о н/о +30.4 +13.7 36 +32 +32 жарко 1016.7 991.9
14 19.08 С 3 н/о н/о +30.3 +14.0 37 +32 +32 жарко 1016.3 991.5
15 19.08 С 3 н/о н/о +29.9 +13.7 37 +31 +31 жарко 1016.4 991.6
16 19.08 СВ 3 н/о н/о +29.5 +14.9 41 +32 +32 душно 1016.2 991.4
17 19.08 С 3 н/о н/о +28.8 +14.6 42 +31 +31 жарко 1016.8 991.9
18 19.08 З 3
{19}
н/о н/о +27.7 +14.7 45 +30 +30 жарко 1017.6 992.6 +24.9 +30.8 0.0
19 19.08 З 7
{15}
н/о в посл. час осадки н/о +24.1 +16.1 61 +27 +27 жарко 1018.4 993.1 0.0
20 19.08 З 7 н/о в посл. час осадки н/о +22.1 +16.8 72 +26 +26 душно 1019.2 993.7 0.0
21 19.08 СЗ 1
{15}
н/о {ливн. осадки} н/о +23.2 +15.9 64 +28 +28 душно 1019.2 993.8 0.0
22 19.08 В 1 н/о н/о +21.6 +17.2 76 +26 +26 душно 1019.6 994.1
23 19.08 ЮЗ 1 н/о н/о +20.7 +17.2 80 +25 +25 комфорт 1019.7 994.1
00 20.08 ЮВ 1
{15}
н/о {ливн. осадки} н/о +20.8 +16.4 76 +25 +25 комфорт 1019.4 993.8 0.0
01 20.08 В 1 н/о н/о +20.8 +16.2 75 +25 +25 комфорт 1019.4 993.8
02 20.08 штиль 0 н/о н/о +20.1 +16.4 79 +23 +23 комфорт 1019.9 994.2
03 20.08 ЮВ 1 н/о н/о +20.2 +16.8 81 +24 +24 комфорт 1020.1 994.4
04 20.08 ЮВ 1 н/о н/о +20.3 +16.9 81 +24 +24 комфорт 1020.2 994.5
05 20.08 В 1 н/о в посл. час осадки н/о +20.4 +17.4 83 +25 +25 комфорт 1020.8 995.1 0.1

 

Местоположение метеостанции Гумпольдскирхен (Австрия): широта 48.03 долгота 16.28 высота над уровнем моря 233 м.

В архиве по умолчанию представлена погода в Гумпольдскирхене за последнюю неделю. Архивные данные за месяц целиком и за предыдущие месяцы, начиная с января 2011 года, Вы можете получить, выбрав интересующий диапазон дат из раскрывающегося списка и нажав кнопку "Ввод!".


*Определитесь, кто Вы:
робот инопланетянин человек

Внимание! Время в таблицах - всемирное. Для получения местного времени необходимо прибавить поправку, которая равна 1 ч.

Смотрите также архив погоды в соседних городах и на ближайших метеорологических станциях:

Погода в Вене электроподстанция (Австрия) (15 км)
Погода в Зайберсдорфе (Австрия) (17 км)
Погода в Мариябрунн (Австрия) (19 км)
Погода в Вене город (Австрия) (20 км)
Погода в Винер-Нойштадт (Австрия) (23 км)
Погода в Вене аэропорт (Австрия) (24 км)
Погода в Вене (Австрия) (25 км)
Погода в Вене Донауфельд (Австрия) (27 км)
Погода в Айзенштадте (Австрия) (27 км)
Погода в Грос-Энцерсдорфе (Австрия) (29 км)

Пояснения к столбцам:

Ветер - указаны скорость ветра в м/с - средняя за 10 мин, порывы в срок и между сроками (в фигурных скобках) и направление, откуда дует ветер: С - северный, СВ - северо-восточный, В - восточный, ЮВ - юго-восточный, Ю - южный, ЮЗ - юго-западный, З - западный, СЗ - северо-западный.
Видимость - горизонтальная дальность видимости в метрах или километрах. При видимости от 1 до 10 км при отсутствии осадков обычно наблюдается дымка, при ухудшении видимости до 1 км и менее - туман. В сухую погоду видимость может ухудшаться дымом, пылью или мглою.
Явления - указаны атмосферные явления, наблюдавшиеся в срок или в последний час перед сроком; фигурными скобками обозначены явления, наблюдавшиеся между сроками (за 1-3 часа до срока); квадратными скобками обозначены град или гололедные отложения с указанием их диаметра в мм.
Облачность - указаны через наклонную черту общая и нижняя облачность в баллах и высота нижней границы облаков в метрах; квадратными скобками обозначены формы облаков: Ci - перистые, Cs - перисто-слоистые, Cc - перисто-кучевые, Ac - высококучевые, As - высокослоистые, Sc - слоисто-кучевые, Ns - слоисто-дождевые, Cu - кучевые, Cb - кучево-дождевые. Подробнее классификацию облаков см. в Атласе облаков (PDF).
T - Температура воздуха - температура, измеренная на высоте 2 м над землей.
Td - Температура точки росы - температура, при понижении до которой содержащийся в воздухе водяной пар достигнет насыщения.
f - Относительная влажность воздуха - влажноcть воздуха, измеренная на высоте 2 м над землей.
Te - Эффективная температура - температура, которую ощущает одетый по сезону человек в тени. Характеристика душности погоды. При расчете учитывается влияние влажности воздуха и скорости ветра на теплоощущения человека.
Tes - Эффективная температура на солнце - температура, которую ощущает человек, с поправкой на солнечный нагрев. Характеристика знойности погоды. Зависит от высоты солнца над горизонтом, облачности и скорости ветра. Ночью, в пасмурную погоду, а также при ветре 12 м/с и более поправка равна нулю.
P - Атмосферное давление - приведенное к уровню моря атмосферное давление.
Po - Атмосферное давление - измеренное на уровне метеостанции атмосферное давление.
Tmin - Минимальная температура - минимум температуры воздуха на высоте 2 м над землей.
Tmax - Максимальная температура - максимум температуры воздуха на высоте 2 м над землей.
R - Количество осадков - Количество выпавших осадков за период времени, мм. При наведении курсора мыши на число - период времени, за который выпало указанное количество осадков.
R24 - Количество осадков - Количество выпавших осадков за 24 часа, мм.
S - Снежный покров - Высота снежного покрова, см. При наведении курсора мыши на число - состояние снежного покрова и степень покрытия местности в баллах.